KG7BDA Weather Reports


time (UTC)temp
C
wind
direction
speed
KPH
gust
KPH
rain 1hr
cm
rain 24hr
cm
rain mn
cm
humidity
%
barometer
mb
20260503005714 24 59 3.2 11.3 0.00 0.00 0.00 17 1014.0
20260503004514 24 20 8.0 16.1 0.00 0.00 0.00 18 1014.1
20260503003914 24 36 8.0 14.5 0.00 0.00 0.00 16 1014.2
20260503003314 24 21 6.4 16.1 0.00 0.00 0.00 15 1014.2
20260503002114 24 36 6.4 14.5 0.00 0.00 0.00 18 1014.1
20260503001514 24 11 6.4 11.3 0.00 0.00 0.00 19 1014.3
20260503000314 24 43 8.0 17.7 0.00 0.00 0.00 17 1014.3
20260502235714 25 44 6.4 14.5 0.00 0.00 0.00 16 1014.4
20260502235114 25 0 0.0 14.5 0.00 0.00 0.00 14 1014.3
20260502234514 25 65 6.4 14.5 0.00 0.00 0.00 15 1014.4
20260502233914 25 38 8.0 14.5 0.00 0.00 0.00 13 1014.5
20260502233314 25 46 8.0 14.5 0.00 0.00 0.00 15 1014.5
20260502232714 25 14 4.8 14.5 0.00 0.00 0.00 13 1014.5
20260502232114 24 35 8.0 14.5 0.00 0.00 0.00 14 1014.6
20260502231514 24 38 9.7 17.7 0.00 0.00 0.00 15 1014.6
20260502231335 24 66 11.3 19.3 0.00 0.00 0.00 14 1014.8
20260502231320 24 62 6.4 16.1 0.00 0.00 0.00 15 1014.8
20260502230914 24 66 11.3 19.3 0.00 0.00 0.00 14 1014.8
20260502230314 24 69 8.0 14.5 0.00 0.00 0.00 16 1014.8
20260502225714 24 62 6.4 16.1 0.00 0.00 0.00 15 1014.8
20260502225152 24 94 11.3 20.9 0.00 0.00 0.00 14 1014.9
20260502225146 24 78 4.8 17.7 0.00 0.00 0.00 14 1015.0
20260502225114 24 84 8.0 20.9 0.00 0.00 0.00 18 1014.9
20260502224514 24 94 11.3 20.9 0.00 0.00 0.00 14 1014.9
20260502223947 24 78 4.8 17.7 0.00 0.00 0.00 14 1015.0
20260502223914 24 78 4.8 17.7 0.00 0.00 0.00 14 1015.0
20260502223314 25 93 12.9 17.7 0.00 0.00 0.00 14 1015.1
20260502222713 25 129 6.4 19.3 0.00 0.00 0.00 13 1015.1
20260502222114 24 113 9.7 20.9 0.00 0.00 0.00 16 1015.3
20260502221514 25 118 14.5 20.9 0.00 0.00 0.00 17 1015.4
20260502220946 25 108 11.3 22.5 0.00 0.00 0.00 17 1015.4
20260502220914 25 108 11.3 22.5 0.00 0.00 0.00 17 1015.4
20260502220314 25 68 17.7 22.5 0.00 0.00 0.00 15 1015.6
20260502215713 25 70 12.9 19.3 0.00 0.00 0.00 16 1015.7
20260502215114 25 98 11.3 16.1 0.00 0.00 0.00 19 1015.8
20260502214514 24 106 8.0 22.5 0.00 0.00 0.00 16 1015.8
20260502213913 24 105 12.9 22.5 0.00 0.00 0.00 15 1015.9
20260502213314 24 133 12.9 19.3 0.00 0.00 0.00 16 1016.0
20260502212714 24 106 8.0 17.7 0.00 0.00 0.00 17 1016.0
20260502212113 24 125 6.4 22.5 0.00 0.00 0.00 18 1016.1
20260502211514 24 114 16.1 22.5 0.00 0.00 0.00 17 1016.3
20260502210914 23 129 8.0 19.3 0.00 0.00 0.00 20 1016.3
20260502210313 23 139 12.9 22.5 0.00 0.00 0.00 19 1016.4
20260502205714 23 152 9.7 22.5 0.00 0.00 0.00 20 1016.4
20260502205113 23 130 4.8 19.3 0.00 0.00 0.00 17 1016.5
20260502204513 23 101 8.0 24.1 0.00 0.00 0.00 17 1016.5
20260502203914 23 141 14.5 24.1 0.00 0.00 0.00 18 1016.5
20260502203314 23 115 8.0 24.1 0.00 0.00 0.00 17 1016.6
20260502202713 23 100 16.1 25.7 0.00 0.00 0.00 20 1016.7
20260502202114 23 137 20.9 27.4 0.00 0.00 0.00 20 1015.9
20260502201513 23 157 19.3 29.0 0.00 0.00 0.00 18 1015.9
20260502200914 23 97 14.5 29.0 0.00 0.00 0.00 18 1016.0
20260502200314 23 126 6.4 32.2 0.00 0.00 0.00 19 1016.2
20260502195713 24 133 12.9 24.1 0.00 0.00 0.00 20 1016.1
20260502195114 23 163 11.3 29.0 0.00 0.00 0.00 19 1016.2
20260502194514 23 173 12.9 24.1 0.00 0.00 0.00 18 1016.2
20260502193913 23 142 14.5 24.1 0.00 0.00 0.00 22 1016.3
20260502193313 22 123 17.7 24.1 0.00 0.00 0.00 18 1016.4
20260502192714 22 106 14.5 22.5 0.00 0.00 0.00 19 1016.4
20260502192113 23 141 14.5 22.5 0.00 0.00 0.00 18 1016.5
20260502191514 23 138 17.7 22.5 0.00 0.00 0.00 21 1016.6
20260502190914 22 123 14.5 24.1 0.00 0.00 0.00 20 1016.6
20260502190352 22 155 12.9 27.4 0.00 0.00 0.00 24 1016.7
20260502190313 22 155 12.9 27.4 0.00 0.00 0.00 24 1016.7
20260502185714 22 145 17.7 27.4 0.00 0.00 0.00 22 1016.7
20260502185114 22 167 19.3 27.4 0.00 0.00 0.00 20 1016.7
20260502184513 22 140 14.5 25.7 0.00 0.00 0.00 22 1016.8
20260502183914 22 146 12.9 24.1 0.00 0.00 0.00 24 1016.7
20260502183314 22 138 8.0 24.1 0.00 0.00 0.00 24 1016.8
20260502182713 22 123 14.5 24.1 0.00 0.00 0.00 26 1017.1
20260502182114 21 158 14.5 24.1 0.00 0.00 0.00 25 1017.1
20260502180913 21 111 14.5 27.4 0.00 0.00 0.00 28 1017.3
20260502180314 21 123 6.4 24.1 0.00 0.00 0.00 30 1017.4
20260502170314 18 208 3.2 8.0 0.00 0.00 0.00 40 1017.7
20260502163913 16 0 0.0 11.3 0.00 0.00 0.00 43 1017.7
20260502163313 16 104 1.6 11.3 0.00 0.00 0.00 46 1017.7
20260502162819 15 134 3.2 8.0 0.00 0.00 0.00 45 1017.8
20260502162713 15 134 3.2 8.0 0.00 0.00 0.00 45 1017.8
20260502162114 15 146 3.2 8.0 0.00 0.00 0.00 46 1017.9
20260502161514 15 191 1.6 8.0 0.00 0.00 0.00 45 1017.9
20260502160913 14 170 4.8 11.3 0.00 0.00 0.00 45 1017.9
20260502152112 13 163 11.3 17.7 0.00 0.00 0.00 52 1017.7
20260502151514 13 126 8.0 12.9 0.00 0.00 0.00 55 1017.6
20260502150913 12 84 8.0 14.5 0.00 0.00 0.00 56 1017.5
20260502150313 12 82 6.4 16.1 0.00 0.00 0.00 55 1017.5
20260502130313 8 75 12.9 14.5 0.00 0.00 0.00 57 1016.8
20260502123312 10 111 9.7 16.1 0.00 0.00 0.00 54 1017.0
20260502122713 9 131 12.9 14.5 0.00 0.00 0.00 57 1016.9
20260502122113 8 138 9.7 14.5 0.00 0.00 0.00 60 1017.0
20260502121512 8 131 8.0 16.1 0.00 0.00 0.00 60 1016.8
20260502120912 8 143 11.3 17.7 0.00 0.00 0.00 60 1016.8
20260502120312 8 137 12.9 19.3 0.00 0.00 0.00 60 1016.8
20260502115713 8 89 12.9 20.9 0.00 0.00 0.00 60 1016.7
20260502115113 8 77 14.5 20.9 0.00 0.00 0.00 61 1016.6
20260502114513 8 76 17.7 20.9 0.00 0.00 0.00 62 1016.6
20260502113913 8 77 16.1 19.3 0.00 0.00 0.00 61 1016.6
20260502113313 8 84 12.9 16.1 0.00 0.00 0.00 60 1016.7
20260502112712 9 93 12.9 16.1 0.00 0.00 0.00 59 1016.9
20260502112112 9 108 12.9 16.1 0.00 0.00 0.00 58 1016.9
20260502111513 9 118 9.7 16.1 0.00 0.00 0.00 58 1017.0
20260502110913 8 114 11.3 16.1 0.00 0.00 0.00 60 1017.1
20260502110313 8 138 9.7 14.5 0.00 0.00 0.00 60 1017.0
20260502105712 8 139 11.3 17.7 0.00 0.00 0.00 59 1016.9
20260502105113 8 83 14.5 17.7 0.00 0.00 0.00 61 1016.9
20260502104513 8 89 11.3 17.7 0.00 0.00 0.00 61 1016.9
20260502103912 8 82 14.5 16.1 0.00 0.00 0.00 62 1016.7
20260502103312 8 86 12.9 16.1 0.00 0.00 0.00 62 1016.9
20260502102713 7 90 12.9 16.1 0.00 0.00 0.00 62 1017.0
20260502102113 7 92 12.9 19.3 0.00 0.00 0.00 60 1017.0
20260502101513 8 100 12.9 19.3 0.00 0.00 0.00 58 1017.0
20260502100313 9 110 16.1 19.3 0.00 0.00 0.00 55 1017.2
20260502091512 10 80 17.7 22.5 0.00 0.00 0.00 56 1017.4
20260502090912 10 79 16.1 22.5 0.00 0.00 0.00 55 1017.6
20260502090312 10 77 17.7 22.5 0.00 0.00 0.00 55 1017.5
20260502071513 11 71 16.1 20.9 0.00 0.00 0.00 54 1017.9
20260502070912 11 82 14.5 20.9 0.00 0.00 0.00 55 1017.8
20260502070312 11 82 14.5 17.7 0.00 0.00 0.00 55 1017.8
20260502065712 11 84 12.9 17.7 0.00 0.00 0.00 55 1017.8
20260502065113 11 63 12.9 17.7 0.00 0.00 0.00 55 1017.7
20260502064512 11 68 14.5 19.3 0.00 0.00 0.00 55 1017.6
20260502063912 11 73 16.1 19.3 0.00 0.00 0.00 53 1017.6
20260502063312 11 72 16.1 19.3 0.00 0.00 0.00 55 1017.6
20260502062713 10 70 16.1 19.3 0.00 0.00 0.00 57 1017.6
20260502062112 10 73 14.5 17.7 0.00 0.00 0.00 58 1017.5
20260502061512 10 76 14.5 17.7 0.00 0.00 0.00 57 1017.5
20260502060912 9 75 14.5 17.7 0.00 0.00 0.00 58 1017.6
20260502060312 9 76 16.1 17.7 0.00 0.00 0.00 58 1017.6
20260502055711 9 79 14.5 17.7 0.00 0.00 0.00 57 1017.5
20260502055113 9 78 14.5 16.1 0.00 0.00 0.00 57 1017.7
20260502054512 9 80 14.5 16.1 0.00 0.00 0.00 57 1017.7
20260502053912 9 81 14.5 17.7 0.00 0.00 0.00 57 1017.7
20260502053312 9 83 16.1 17.7 0.00 0.00 0.00 57 1017.8
20260502052712 9 83 16.1 17.7 0.00 0.00 0.00 57 1017.9
20260502052112 10 83 16.1 17.7 0.00 0.00 0.00 57 1017.8
20260502051512 10 83 16.1 17.7 0.00 0.00 0.00 57 1017.9
20260502050911 10 83 16.1 17.7 0.00 0.00 0.00 57 1017.9
20260502050311 10 84 16.1 17.7 0.00 0.00 0.00 57 1017.8
20260502045712 10 82 16.1 17.7 0.00 0.00 0.00 56 1017.9
20260502045112 10 82 16.1 17.7 0.00 0.00 0.00 57 1017.8
20260502044512 9 82 16.1 19.3 0.00 0.00 0.00 57 1017.8
20260502043912 10 82 17.7 19.3 0.00 0.00 0.00 54 1018.0
20260502043312 10 80 14.5 17.7 0.00 0.00 0.00 53 1017.9
20260502042712 10 79 14.5 19.3 0.00 0.00 0.00 53 1017.9
20260502042112 10 77 14.5 19.3 0.00 0.00 0.00 53 1017.8
20260502041512 10 82 14.5 17.7 0.00 0.00 0.00 54 1017.8
20260502040911 10 84 16.1 17.7 0.00 0.00 0.00 58 1017.8
20260502040349 10 85 14.5 17.7 0.00 0.00 0.00 57 1017.8
20260502040312 10 85 14.5 17.7 0.00 0.00 0.00 57 1017.8
20260502035712 10 79 12.9 14.5 0.00 0.00 0.00 56 1017.7
20260502035112 10 78 12.9 16.1 0.00 0.00 0.00 56 1017.7
20260502034512 11 79 12.9 19.3 0.00 0.00 0.00 55 1017.7
20260502033911 10 86 16.1 19.3 0.00 0.00 0.00 56 1017.4
20260502033311 10 88 14.5 16.1 0.00 0.00 0.00 57 1017.6
20260502032712 11 87 14.5 16.1 0.00 0.00 0.00 57 1017.6
20260502032112 11 84 12.9 16.1 0.00 0.00 0.00 54 1017.4
20260502031512 12 84 12.9 14.5 0.00 0.00 0.00 52 1017.4
20260502030911 12 82 12.9 14.5 0.00 0.00 0.00 51 1017.4
20260502030312 13 80 11.3 14.5 0.00 0.00 0.00 49 1017.3
20260502025712 15 85 12.9 14.5 0.00 0.00 0.00 46 1017.2
20260502025112 15 86 12.9 14.5 0.00 0.00 0.00 44 1017.2
20260502024511 16 83 11.3 12.9 0.00 0.00 0.00 44 1017.1
20260502023912 16 82 8.0 11.3 0.00 0.00 0.00 42 1017.2
20260502023312 17 83 6.4 11.3 0.00 0.00 0.00 41 1017.4
20260502022712 17 81 6.4 8.0 0.00 0.00 0.00 39 1017.3
20260502022111 18 79 4.8 6.4 0.00 0.00 0.00 36 1017.3
20260502021512 18 80 4.8 6.4 0.00 0.00 0.00 35 1017.5
20260502020912 18 79 3.2 6.4 0.00 0.00 0.00 34 1017.5
20260502020311 19 80 4.8 6.4 0.00 0.00 0.00 34 1017.5
20260502015712 19 82 4.8 6.4 0.00 0.00 0.00 29 1017.6
20260502015112 20 81 4.8 6.4 0.00 0.00 0.00 31 1017.7
20260502014511 20 77 4.8 8.0 0.00 0.00 0.00 29 1017.8
20260502013912 20 73 4.8 8.0 0.00 0.00 0.00 27 1017.7
20260502013312 20 69 4.8 9.7 0.00 0.00 0.00 25 1017.8
20260502012711 21 65 6.4 11.3 0.00 0.00 0.00 23 1017.8
20260502012112 21 82 4.8 12.9 0.00 0.00 0.00 21 1017.8
20260502011512 21 81 8.0 14.5 0.00 0.00 0.00 20 1017.8
20260502010912 21 83 9.7 14.5 0.00 0.00 0.00 20 1017.9
20260502010312 21 86 6.4 11.3 0.00 0.00 0.00 21 1018.0